Location: Goettingen
(51.5300°N, 9.9433°E)
Time: 17:44:08
(UTC+02:00)

ISS - Pass Details

Date: 23 May 2020
Orbit: 417 x 420 km, 51.6° (Epoch: 26 May)

Event Time Altitude Azimuth Distance (km) Brightness Sun altitude
Rises 00:42:10 0° 284° (WNW) 2,369 0.4 -17.4°
Reaches altitude 10° 00:44:19 10° 278° (W) 1,503 -0.8 -17.5°
Enters shadow 00:47:18 45° 220° (SW) 585 -3.4 -17.6°
